Flag for Australia Weather past 2 weeks in The Settlement, Christmas Island, Australia

Now
73 °F

Sprinkles. Cloudy.


Feels Like: 73 °F
Forecast: 74 / 78 °F
Wind: 15 mph from East

Location: Christmas Island Aerodrome

Current Time: Aug 2, 2014 at 5:04:23 PM

Latest Report: Aug 2, 2014 at 4:00 PM


Visibility: N/A

Pressure: 29.92 "Hg

Humidity: 83%

Dew point: 68 °F

Location of The SettlementLocation

Historic Weather in The Settlement — Graph

°F

The Settlement temperature yesterday

Maximum temperature yesterday: 79 °F (at 12:00 PM)
Minimum temperature yesterday: 73 °F (at 1:00 AM)
Average temperature yesterday: 75 °F

Past Weeks' High & Low Weather Summary

 TemperatureHumidityPressure
High79 °F (Jul 19, 10:00 AM)100% (Jul 22, 8:02 AM)30.07 "Hg (Jul 22, 8:02 AM)
Low72 °F (Jul 23, 7:00 PM)65% (Jul 28, 1:00 PM)29.89 "Hg (Jul 18, 4:03 PM)
Average75 °F84%29.96 "Hg
* Reported Jul 18 4:03 PM — Aug 2 4:00 PM, The Settlement, Weather by CustomWeather, © 2014

Note: Actual official high and low records may vary slightly from our data, if they occured in-between our weather recording intervals... More about our weather records

Advertising

The Settlement weather history for previous 24 hours

 ConditionsComfort  
Time TempWeatherWind HumidityBarometerVisibility
4:00 PM
Aug 2
73 °FSprinkles. Cloudy.15 mph83%29.92 "HgN/A
3:00 PM77 °FMostly cloudy.9 mph83%29.92 "HgN/A
2:00 PM75 °FOvercast.15 mph89%29.92 "HgN/A
1:00 PM77 °FOvercast.15 mph79%29.92 "HgN/A
12:00 PM77 °FMostly cloudy.14 mph79%29.95 "HgN/A
11:00 AM77 °FOvercast.14 mph79%29.98 "HgN/A
10:00 AM77 °FMostly cloudy.15 mph79%29.98 "HgN/A
9:03 AM75 °FBroken clouds.15 mph89%29.98 "HgN/A
8:00 AM75 °FSprinkles. Mostly cloudy.12 mph94%29.98 "HgN/A
7:00 AM75 °FMostly cloudy.10 mph89%29.95 "HgN/A
6:03 AM73 °FPassing clouds.12 mph89%29.95 "HgN/A
5:00 AM73 °FPassing clouds.13 mph89%29.92 "HgN/A
3:00 AM73 °FPassing clouds.12 mph89%29.95 "HgN/A
2:05 AM73 °FPassing clouds.10 mph89%29.95 "HgN/A
2:00 AM73 °FPassing clouds.10 mph89%29.95 "HgN/A
1:00 AM73 °FPassing clouds.10 mph83%29.98 "HgN/A
12:00 AM73 °FPassing clouds.12 mph83%29.98 "HgN/A
11:00 PM
Aug 1
73 °FPassing clouds.9 mph83%29.98 "HgN/A
10:00 PM73 °FPassing clouds.10 mph83%30.01 "HgN/A
9:00 PM73 °FPassing clouds.13 mph83%29.98 "HgN/A
8:00 PM73 °FPassing clouds.10 mph83%29.98 "HgN/A
7:00 PM73 °FPassing clouds.9 mph83%29.98 "HgN/A
6:00 PM73 °FPartly cloudy.10 mph78%29.95 "HgN/A
5:00 PM75 °FPartly sunny.10 mph78%29.92 "HgN/A
Weather by CustomWeather, © 2014

See weather overviewHow to use our weather pages